Погода в Новоалександровке

Украина / Днепропетровская область     48°14′12″N   35°30′57″E
темп.,
°C
ветер,
м/с
пор.,
м/с
влажн.,
%
обл.,
%
осадки,
мм/ч
давл.,
гПа
погр.,
м
12 мая, ср
ср1200:00+7ссв61086100 0.1 1014754
03:00+7св6886100 0.3 1013799
06:00+7всв4791100 0.6 1014635
09:00+7в5787100 1.8 1014740
12:00+8вюв348699 0.9 1014504
15:00+11ююз246358 1.5 10131105
18:00+12ююз45659 1.7 10131036
21:00+8ю35865 2.1 101363
13 мая, чт
чт1300:00+7ю3688100 0.0 101499
03:00+7ююв349067 0.0 101460
06:00+7вюв33885 0.0 101451
09:00+13вюв33675 0.0 1014519
12:00+18юв45585 0.0 10141125
15:00+21ююв3449100 0.0 10121696
18:00+21в2357100 0.0 1012276
21:00+16юв467787 0.0 101294
14 мая, пт
пт1400:00+14вюв4984100 0.0 1011135
03:00+13юв4892100 0.0 1011145
06:00+14юв489469 0.0 1010157
09:00+20ю357488 0.0 1010504
12:00+23ю4552100 0.0 1010932
15:00+25ююз4644100 0.0 10101326
18:00+23юз3553100 0.0 1010250
21:00+18юз336315 0.0 101026
15 мая, сб
сб1500:00+15зюз33740 0.0 101129
03:00+14юз34844 0.0 101269
06:00+13юз238397 0.0 101255
09:00+19юз356154 0.0 1012508
12:00+23юз5648100 0.0 10131655
15:00+24зюз564414 0.0 10132299
18:00+23юз345111 0.0 1013975
21:00+19зсз1155100 0.0 101311
16 мая, вс
вс1600:00+17ссз226547 0.0 101312
03:00+15в227140 0.0 101311
06:00+15в347582 0.0 101373
09:00+21всв465864 0.0 1012482
12:00+25всв6749100 0.0 10121437
15:00+26всв564475 0.0 10101757
18:00+26всв57555 0.0 1009693
21:00+19св4128243 0.3 1008221